White Plains, CT

6:25 AM EDT on September 20, 2019 (GMT -0400)
Westchester County

Weather History for KHPN - July, 2019

Change the Weather History Date:

Thursday, July 11, 2019

  Actual Average Record
Temperature  
Mean Temperature 76 °F -  
Max Temperature 84 °F 79 °F 94 °F (1988)
Min Temperature 71 °F 61 °F 53 °F (2002)
Cooling Degree Days 12    
Growing Degree Days 26 (Base 50)    
Moisture  
Dew Point 69 °F    
Average Humidity 83    
Maximum Humidity 100    
Minimum Humidity 50    
Precipitation  
Precipitation 0.76 in - - ()
Sea Level Pressure  
Sea Level Pressure 29.89 in    
Wind  
Wind Speed 4 mph (SSE)    
Max Wind Speed 13 mph    
Max Gust Speed 18 mph    
Visibility 8 miles    
Events Rain    
Averages and records for this station are not official NWS values.
T = Trace of Precipitation, MM = Missing Value Source: NWS Daily Summary

Daily Weather History Graph

Daily Weather History Graph

Search for Another Location

Airport or City:

Astronomy

Jul. 11, 2019 Rise Set
Actual Time 5:32 AM EDT 8:28 PM EDT
Civil Twilight 4:59 AM EDT 9:00 PM EDT
Nautical Twilight 4:17 AM EDT 9:42 PM EDT
Astronomical Twilight 3:29 AM EDT 10:30 PM EDT
Moon 3:37 PM EDT (7/11) 1:43 AM EDT (7/11)
Length of Visible Light 16h 01m
Length of Day
14h 55m
Waxing Gibbous, 74% of the Moon is Illuminated
Jul 11
Waxing Gibbous
Jul 16
Full
Jul 24
Last Quarter
Jul 31
New
Aug 7
First Quarter

Hourly Weather History & Observations

Time (EDT) Temp. Heat Index Dew Point Humidity Pressure Visibility Wind Dir Wind Speed Gust Speed Precip Events Conditions
12:56 AM 73.0 °F - 69.1 °F 87% 29.96 in 10.0 mi Calm Calm - N/A   Scattered Clouds
1:56 AM 73.0 °F - 70.0 °F 90% 29.96 in 10.0 mi Calm Calm - N/A   Mostly Cloudy
2:56 AM 72.0 °F - 69.1 °F 91% 29.95 in 10.0 mi Calm Calm - N/A   Mostly Cloudy
3:56 AM 73.0 °F - 69.1 °F 87% 29.95 in 10.0 mi Calm Calm - N/A   Mostly Cloudy
4:56 AM 71.1 °F - 68.0 °F 90% 29.96 in 10.0 mi SSE 3.5 mph - N/A   Partly Cloudy
5:56 AM 71.1 °F - 66.9 °F 87% 29.96 in 10.0 mi Calm Calm - N/A   Clear
6:56 AM 72.0 °F - 66.0 °F 81% 29.96 in 10.0 mi SSE 3.5 mph - N/A   Clear
7:56 AM 75.0 °F - 66.0 °F 73% 29.97 in 10.0 mi South 4.6 mph - N/A   Clear
8:56 AM 78.1 °F - 66.0 °F 66% 29.96 in 10.0 mi SE 6.9 mph - N/A   Clear
9:56 AM 79.0 °F - 64.9 °F 62% 29.94 in 10.0 mi SSE 8.1 mph - N/A   Clear
10:56 AM 81.0 °F 81.7 °F 61.0 °F 50% 29.94 in 10.0 mi South 9.2 mph - N/A   Clear
11:56 AM 82.9 °F 84.4 °F 64.0 °F 53% 29.92 in 10.0 mi South 9.2 mph - N/A   Clear
12:56 PM 82.9 °F 84.6 °F 64.9 °F 54% 29.91 in 10.0 mi SSE 12.7 mph 18.4 mph N/A   Partly Cloudy
1:56 PM 82.9 °F 85.8 °F 68.0 °F 60% 29.89 in 10.0 mi South 10.4 mph - N/A   Scattered Clouds
2:56 PM 80.1 °F 82.3 °F 66.9 °F 64% 29.87 in 10.0 mi South 10.4 mph - 0.00 in Rain Light Rain
3:56 PM 75.0 °F - 70.0 °F 84% 29.88 in 10.0 mi SSE 8.1 mph - 0.01 in Rain Light Rain
4:56 PM 72.0 °F - 70.0 °F 93% 29.85 in 5.0 mi SE 4.6 mph - 0.12 in Rain Light Rain
5:51 PM 73.4 °F - 71.6 °F 94% 29.85 in 8.0 mi ESE 5.8 mph - 0.05 in Rain Light Rain
5:56 PM 73.0 °F - 72.0 °F 96% 29.84 in 8.0 mi SE 5.8 mph - 0.05 in Rain Light Rain
6:56 PM 73.0 °F - 72.0 °F 96% 29.85 in 9.0 mi SSE 5.8 mph - 0.05 in Rain Light Rain
7:56 PM 73.0 °F - 72.0 °F 96% 29.82 in 6.0 mi SE 9.2 mph - 0.04 in Rain Light Rain
8:56 PM 73.0 °F - 73.0 °F 100% 29.81 in 5.0 mi SE 5.8 mph - 0.09 in Rain Light Rain
9:42 PM 73.0 °F - 72.0 °F 96% 29.82 in 7.0 mi SSE 8.1 mph - 0.10 in Rain Light Rain
9:56 PM 73.9 °F - 71.1 °F 91% 29.80 in 6.0 mi Variable 6.9 mph - 0.13 in Rain Light Rain
10:56 PM 72.0 °F - 71.1 °F 97% 29.77 in 10.0 mi SE 8.1 mph - 0.03 in Rain Light Rain
11:45 PM 72.0 °F - 71.1 °F 97% 29.78 in 1.8 mi SE 5.8 mph - 0.16 in Rain Heavy Rain
11:56 PM 72.0 °F - 70.0 °F 93% 29.75 in 2.0 mi SSE 5.8 mph - 0.24 in Rain Light Rain